TimePST,TemperatureF,Dew PointF,Humidity,Sea Level PressureIn,VisibilityMPH,Wind Direction,Wind SpeedMPH,Gust SpeedMPH,PrecipitationIn,Events,Conditions,WindDirDegrees,DateUTC
12:01 AM,42.8,41.0,93,30.29,0.5,South,4.6,-,N/A,Fog,Fog,190,2013-02-02 08:01:00
12:37 AM,41.0,41.0,100,30.29,1.2,South,3.5,-,N/A,,Overcast,170,2013-02-02 08:37:00
12:54 AM,41.0,41.0,100,30.30,0.5,SSE,3.5,-,N/A,Fog,Fog,160,2013-02-02 08:54:00
1:18 AM,41.0,41.0,100,30.28,1.8,SE,3.5,-,N/A,,Overcast,130,2013-02-02 09:18:00
1:20 AM,41.0,41.0,100,30.28,3.0,Calm,Calm,-,N/A,,Overcast,0,2013-02-02 09:20:00
1:54 AM,41.0,39.9,96,30.30,5.0,SSE,5.8,-,N/A,,Overcast,160,2013-02-02 09:54:00
2:07 AM,39.2,39.2,100,30.30,1.8,SSE,6.9,-,N/A,,Overcast,160,2013-02-02 10:07:00
2:15 AM,39.2,39.2,100,30.30,0.8,SSE,6.9,-,N/A,,Mist,150,2013-02-02 10:15:00
2:54 AM,39.0,39.0,100,30.31,0.5,South,4.6,-,N/A,Fog,Fog,180,2013-02-02 10:54:00
3:09 AM,39.2,39.2,100,30.30,1.0,South,4.6,-,N/A,,Mist,180,2013-02-02 11:09:00
3:18 AM,39.2,39.2,100,30.29,0.8,South,3.5,-,N/A,,Mist,170,2013-02-02 11:18:00
3:30 AM,39.2,39.2,100,30.29,1.5,South,4.6,-,N/A,,Overcast,180,2013-02-02 11:30:00
3:47 AM,39.2,39.2,100,30.29,0.8,South,5.8,-,N/A,,Mist,190,2013-02-02 11:47:00
3:54 AM,39.0,39.0,100,30.30,0.5,South,4.6,-,N/A,Fog,Fog,190,2013-02-02 11:54:00
4:26 AM,39.2,37.4,93,30.29,0.5,SSW,3.5,-,N/A,Fog,Fog,210,2013-02-02 12:26:00
4:45 AM,39.2,37.4,93,30.29,0.5,Calm,Calm,-,N/A,Fog,Fog,0,2013-02-02 12:45:00
4:54 AM,39.0,37.9,96,30.30,0.5,SSW,3.5,-,N/A,Fog,Fog,210,2013-02-02 12:54:00
5:24 AM,37.4,37.4,100,30.28,0.2,SE,4.6,-,N/A,Fog,Fog,130,2013-02-02 13:24:00
5:54 AM,37.9,37.9,100,30.29,0.2,Calm,Calm,-,N/A,Fog,Fog,0,2013-02-02 13:54:00
5:58 AM,37.4,37.4,100,30.28,0.5,SSE,3.5,-,N/A,Fog,Fog,160,2013-02-02 13:58:00
6:45 AM,37.4,37.4,100,30.28,1.2,Calm,Calm,-,N/A,,Overcast,0,2013-02-02 14:45:00
6:51 AM,37.4,37.4,100,30.28,1.5,Calm,Calm,-,N/A,,Overcast,0,2013-02-02 14:51:00
6:54 AM,37.9,37.0,97,30.29,1.5,Calm,Calm,-,N/A,,Overcast,0,2013-02-02 14:54:00
7:47 AM,37.4,37.4,100,30.29,0.5,SSE,3.5,-,N/A,,Mist,150,2013-02-02 15:47:00
7:54 AM,37.9,37.0,97,30.30,0.5,SSE,3.5,-,N/A,,Mist,150,2013-02-02 15:54:00
8:54 AM,37.9,37.9,100,30.32,0.5,South,4.6,-,N/A,Fog,Fog,180,2013-02-02 16:54:00
9:42 AM,37.4,37.4,100,30.32,0.5,SW,5.8,-,N/A,,Overcast,220,2013-02-02 17:42:00
9:44 AM,37.4,37.4,100,30.32,1.5,SSW,5.8,-,N/A,,Overcast,210,2013-02-02 17:44:00
9:54 AM,37.9,37.0,97,30.34,2.0,SW,4.6,-,N/A,,Overcast,220,2013-02-02 17:54:00
10:54 AM,37.9,37.9,100,30.34,2.5,Calm,Calm,-,N/A,,Overcast,0,2013-02-02 18:54:00
11:01 AM,39.2,37.4,93,30.33,3.0,SSW,3.5,-,N/A,,Overcast,210,2013-02-02 19:01:00
11:54 AM,41.0,39.0,93,30.33,7.0,SW,3.5,-,N/A,,Mostly Cloudy,230,2013-02-02 19:54:00
12:09 PM,42.8,39.2,87,30.32,10.0,WSW,4.6,-,N/A,,Mostly Cloudy,240,2013-02-02 20:09:00
12:54 PM,45.0,41.0,86,30.31,10.0,SSW,4.6,-,N/A,,Mostly Cloudy,200,2013-02-02 20:54:00
1:01 PM,44.6,41.0,87,30.30,10.0,Calm,Calm,-,N/A,,Overcast,0,2013-02-02 21:01:00
1:54 PM,46.9,42.1,83,30.30,10.0,WSW,3.5,-,N/A,,Mostly Cloudy,250,2013-02-02 21:54:00
2:54 PM,50.0,42.1,74,30.29,10.0,Calm,Calm,-,N/A,,Mostly Cloudy,0,2013-02-02 22:54:00
3:54 PM,48.9,43.0,80,30.28,10.0,North,3.5,-,N/A,,Mostly Cloudy,360,2013-02-02 23:54:00
4:54 PM,48.0,43.0,83,30.28,10.0,North,5.8,-,N/A,,Mostly Cloudy,350,2013-02-03 00:54:00
5:54 PM,44.1,42.1,93,30.29,10.0,Calm,Calm,-,N/A,,Mostly Cloudy,0,2013-02-03 01:54:00
6:54 PM,41.0,39.9,96,30.29,9.0,Calm,Calm,-,N/A,,Scattered Clouds,0,2013-02-03 02:54:00
7:54 PM,37.0,36.0,96,30.29,6.0,Calm,Calm,-,N/A,,Partly Cloudy,0,2013-02-03 03:54:00
7:58 PM,37.4,35.6,93,30.28,0.5,Calm,Calm,-,N/A,Fog,Fog,0,2013-02-03 03:58:00
8:26 PM,35.6,33.8,93,30.28,1.0,Calm,Calm,-,N/A,,Mostly Cloudy,0,2013-02-03 04:26:00
8:35 PM,35.6,33.8,93,30.28,0.5,Calm,Calm,-,N/A,Fog,Fog,0,2013-02-03 04:35:00
8:54 PM,35.1,34.0,96,30.30,0.2,SSW,3.5,-,N/A,Fog,Fog,200,2013-02-03 04:54:00
9:22 PM,35.6,33.8,93,30.29,0.2,West,4.6,-,N/A,Fog,Fog,260,2013-02-03 05:22:00
9:49 PM,37.4,37.4,100,30.29,0.5,South,3.5,-,N/A,Fog,Fog,190,2013-02-03 05:49:00
9:54 PM,37.0,37.0,100,30.30,0.8,South,4.6,-,N/A,,Overcast,190,2013-02-03 05:54:00
10:54 PM,43.0,42.1,97,30.30,0.8,SW,3.5,-,N/A,,Overcast,220,2013-02-03 06:54:00
11:09 PM,42.8,42.8,100,30.31,3.0,West,3.5,-,N/A,,Overcast,270,2013-02-03 07:09:00
11:39 PM,41.0,39.2,93,30.33,5.0,North,6.9,-,N/A,,Overcast,360,2013-02-03 07:39:00
11:54 PM,39.9,39.0,97,30.35,4.0,NNE,4.6,-,N/A,,Overcast,30,2013-02-03 07:54:00